"startDT [UTC]","vpos","CH4 [ppm]","stdev(CH4) [ppm]","CO2 [ppm]","stdev(CO2) [ppm]","H2O [ppm]","stdev(H2O)","p_LGR [torr]","T_LGR [C]","mt1_LGR [us]","mt2_LGR [us]","T_ECpre [C]","T_EC1 [C]","T_EC2 [C]","p_inlet [hPa]","p_in [hPa]","p_out [hPa]","T_inlet [C]","RH_inlet [%]","dwpt_inlet [C]","T_vent [C]","RH_vent [%]","dwpt_vent [C]","flow_vent [l min-1]","flow_inlet [l min-1]","dwpt_sample [C]","T_room [C]"
2012-09-13 00:00:00,0.0,1.9252,0.0010,388.53,0.27,198.8,31.4,138.05,30.82,24.65,36.52,0.93,17.10,-26.60,-47,39,-940,23.8,17.0,-2.7,24.1,1.7,-29.7,5.73,2.54,-28.2,30.1
2012-09-13 00:01:00,0.0,1.9252,0.0009,388.48,0.25,199.1,28.1,138.05,30.82,24.66,36.52,0.92,17.14,-26.59,-47,39,-940,23.8,18.0,-2.0,24.1,1.7,-29.8,5.73,2.54,-28.2,30.1
2012-09-13 00:02:00,0.0,1.9247,0.0010,388.57,0.33,202.6,32.9,138.05,30.82,24.66,36.51,0.93,17.17,-26.59,-47,39,-940,23.8,17.6,-2.3,24.1,1.7,-29.8,5.73,2.54,-28.2,30.2
2012-09-13 00:03:00,0.0,1.9241,0.0009,388.52,0.31,201.3,29.4,138.05,30.82,24.66,36.52,0.92,17.20,-26.59,-47,39,-940,23.8,17.2,-2.6,24.1,1.7,-29.8,5.73,2.56,-28.2,30.2
2012-09-13 00:04:00,0.0,1.9250,0.0009,388.54,0.27,198.1,27.6,138.05,30.83,24.65,36.52,0.92,17.24,-26.59,-46,39,-940,23.8,17.5,-2.3,24.1,1.7,-29.8,5.73,2.56,-28.2,30.2
2012-09-13 00:05:00,0.0,1.9246,0.0011,388.50,0.24,196.2,23.1,138.05,30.83,24.65,36.52,0.93,17.27,-26.59,-47,39,-940,23.8,17.6,-2.3,24.1,1.7,-29.8,5.73,2.54,-28.2,30.2
2012-09-13 00:06:00,0.0,1.9237,0.0009,388.49,0.27,194.2,36.8,138.05,30.83,24.66,36.52,0.93,17.30,-26.59,-47,39,-940,23.8,17.2,-2.6,24.1,1.7,-29.7,5.73,2.54,-28.2,30.2
2012-09-13 00:07:00,0.0,1.9247,0.0008,388.53,0.31,197.0,30.3,138.05,30.83,24.65,36.52,0.93,17.33,-26.59,-47,39,-940,23.8,17.3,-2.5,24.1,1.7,-29.8,5.73,2.54,-28.2,30.3
2012-09-13 00:08:00,0.0,1.9252,0.0011,388.53,0.31,196.4,29.7,138.05,30.83,24.65,36.51,0.93,17.36,-26.58,-47,39,-940,23.8,17.3,-2.5,24.1,1.7,-29.7,5.73,2.56,-28.2,30.3
2012-09-13 00:09:00,0.0,1.9248,0.0008,388.50,0.31,201.0,30.4,138.05,30.83,24.65,36.51,0.93,17.38,-26.59,-47,39,-940,23.8,17.3,-2.5,24.1,1.7,-29.7,5.73,2.57,-28.2,30.3
2012-09-13 00:10:00,0.0,1.9238,0.0009,388.37,0.32,201.7,29.0,138.05,30.83,24.65,36.52,0.94,17.41,-26.59,-47,39,-940,23.8,17.5,-2.4,24.1,1.7,-29.8,5.73,2.55,-28.2,30.2
2012-09-13 00:11:00,0.0,1.9232,0.0008,388.43,0.30,197.6,30.8,138.05,30.83,24.65,36.52,0.93,17.44,-26.59,-47,39,-940,23.8,16.9,-2.8,24.1,1.7,-29.8,5.73,2.53,-28.2,30.3
2012-09-13 00:12:00,0.0,1.9230,0.0009,388.46,0.30,202.5,31.6,138.05,30.83,24.65,36.52,0.92,17.46,-26.59,-47,39,-940,23.8,17.0,-2.8,24.1,1.7,-29.7,5.73,2.54,-28.2,30.3
2012-09-13 00:13:00,0.0,1.9232,0.0008,388.48,0.32,195.6,28.6,138.05,30.83,24.65,36.52,0.94,17.48,-26.59,-47,39,-940,23.8,17.4,-2.4,24.1,1.7,-29.7,5.73,2.56,-28.2,30.3
2012-09-13 00:14:00,0.0,1.9234,0.0009,388.59,0.27,196.7,27.9,138.05,30.83,24.65,36.52,0.93,17.50,-26.59,-47,39,-940,23.8,17.6,-2.2,24.1,1.7,-29.7,5.73,2.57,-28.2,30.3
2012-09-13 00:15:00,0.0,1.9244,0.0009,388.47,0.31,201.3,28.8,138.05,30.84,24.66,36.52,0.90,17.52,-26.58,-47,39,-940,23.8,17.9,-2.0,24.1,1.7,-29.7,5.73,2.56,-28.2,30.2
2012-09-13 00:16:00,0.0,1.9246,0.0009,388.44,0.27,198.1,29.2,138.05,30.83,24.65,36.52,0.93,17.55,-26.58,-47,39,-940,23.8,17.9,-2.0,24.2,1.7,-29.7,5.73,2.54,-28.2,30.2
2012-09-13 00:17:00,0.0,1.9224,0.0009,388.37,0.29,199.6,25.8,138.05,30.83,24.65,36.52,0.92,17.56,-26.58,-47,39,-940,23.8,17.1,-2.6,24.1,1.7,-29.7,5.73,2.54,-28.2,30.1
2012-09-13 00:18:00,0.0,1.9218,0.0010,388.33,0.29,197.9,31.5,138.05,30.83,24.66,36.52,0.92,17.58,-26.58,-47,39,-940,23.8,16.8,-2.9,24.2,1.7,-29.7,5.73,2.56,-28.2,30.2
2012-09-13 00:19:00,0.0,1.9224,0.0007,388.41,0.31,195.0,29.4,138.05,30.83,24.65,36.52,0.93,17.60,-26.58,-47,39,-940,23.8,17.0,-2.7,24.2,1.7,-29.7,5.73,2.57,-28.2,30.2
2012-09-13 00:20:00,0.0,1.9229,0.0009,388.41,0.33,193.0,32.1,138.05,30.84,24.66,36.52,0.91,17.61,-26.58,-47,39,-940,23.8,17.1,-2.6,24.1,1.7,-29.8,5.73,2.56,-28.2,30.2
2012-09-13 00:21:00,0.0,1.9235,0.0009,388.27,0.32,196.5,33.2,138.05,30.84,24.65,36.53,0.91,17.63,-26.58,-47,39,-939,23.8,17.5,-2.4,24.1,1.7,-29.7,5.73,2.54,-28.2,30.3
2012-09-13 00:22:00,0.0,1.9238,0.0012,388.32,0.24,194.9,29.0,138.05,30.83,24.65,36.52,0.92,17.64,-26.58,-47,39,-939,23.8,17.4,-2.4,24.1,1.7,-29.7,5.73,2.54,-28.2,30.2
2012-09-13 00:23:00,0.0,1.9227,0.0009,388.35,0.32,198.7,35.0,138.05,30.83,24.65,36.52,0.92,17.66,-26.58,-47,39,-940,23.8,17.5,-2.3,24.1,1.7,-29.8,5.73,2.55,-28.2,30.3
2012-09-13 00:24:00,0.0,1.9222,0.0008,388.38,0.30,195.3,35.7,138.05,30.83,24.66,36.52,0.92,17.67,-26.58,-47,39,-940,23.8,17.9,-2.0,24.1,1.7,-29.7,5.73,2.56,-28.2,30.3
2012-09-13 00:25:00,0.0,1.9220,0.0008,388.35,0.27,195.2,36.1,138.05,30.83,24.65,36.52,0.98,17.64,-26.58,-47,39,-940,23.8,18.0,-1.9,24.1,1.7,-29.7,5.73,2.56,-28.2,30.3
2012-09-13 00:26:00,0.0,1.9221,0.0007,388.30,0.33,198.3,32.1,138.05,30.83,24.65,36.52,1.08,16.52,-26.59,-47,39,-940,23.8,17.4,-2.4,24.1,1.7,-29.7,5.73,2.54,-28.2,30.3
2012-09-13 00:27:00,0.0,1.9231,0.0010,388.34,0.27,191.6,35.3,138.05,30.83,24.65,36.51,1.05,14.38,-26.59,-47,39,-940,23.7,17.4,-2.5,24.1,1.7,-29.7,5.73,2.54,-28.2,30.3
2012-09-13 00:28:00,0.0,1.9228,0.0010,388.39,0.31,195.8,27.6,138.05,30.84,24.65,36.52,0.99,12.06,-26.60,-47,39,-940,23.7,17.9,-2.0,24.1,1.7,-29.7,5.73,2.55,-28.2,30.3
2012-09-13 00:29:00,0.0,1.9219,0.0009,388.38,0.35,188.2,32.4,138.05,30.84,24.65,36.52,1.04,9.75,-26.60,-47,39,-940,23.7,17.7,-2.2,24.1,1.7,-29.7,5.73,2.56,-28.2,30.4
2012-09-13 00:30:00,0.0,1.9219,0.0010,388.24,0.30,190.7,31.0,138.05,30.84,24.65,36.52,0.97,7.52,-26.59,-47,39,-940,23.7,17.4,-2.4,24.1,1.7,-29.7,5.73,2.57,-28.2,30.4
2012-09-13 00:31:00,0.0,1.9220,0.0009,388.36,0.31,201.2,29.0,138.05,30.84,24.65,36.52,1.00,5.38,-26.58,-47,39,-940,23.7,17.6,-2.3,24.1,1.7,-29.8,5.73,2.55,-28.2,30.4
2012-09-13 00:32:00,0.0,1.9220,0.0008,388.33,0.34,195.0,29.7,138.05,30.84,24.65,36.52,1.09,3.35,-26.56,-47,39,-940,23.7,17.6,-2.3,24.1,1.7,-29.8,5.73,2.54,-28.2,30.4
2012-09-13 00:33:00,0.0,1.9217,0.0010,388.34,0.30,193.7,24.9,138.05,30.84,24.65,36.52,0.99,1.41,-26.55,-47,39,-940,23.7,17.5,-2.4,24.1,1.7,-29.7,5.73,2.54,-28.2,30.4
2012-09-13 00:34:00,0.0,1.9224,0.0009,388.39,0.26,193.2,27.3,138.05,30.85,24.65,36.51,0.98,-0.42,-26.54,-47,39,-940,23.7,17.6,-2.3,24.1,1.7,-29.8,5.73,2.56,-28.2,30.3
2012-09-13 00:35:00,0.0,1.9230,0.0008,388.44,0.34,190.0,25.2,138.05,30.85,24.65,36.51,1.07,-2.14,-26.52,-47,39,-940,23.7,17.8,-2.2,24.1,1.7,-29.8,5.73,2.56,-28.2,30.3
2012-09-13 00:36:00,0.0,1.9230,0.0008,388.34,0.34,197.1,32.6,138.05,30.85,24.65,36.52,1.02,-3.61,-26.51,-47,39,-940,23.7,17.8,-2.1,24.1,1.7,-29.7,5.73,2.55,-28.2,30.3
2012-09-13 00:37:00,0.0,1.9223,0.0009,388.27,0.32,189.0,26.9,138.05,30.85,24.65,36.52,0.95,-5.08,-26.50,-47,39,-940,23.8,17.9,-2.0,24.2,1.7,-29.7,5.73,2.54,-28.2,30.3
2012-09-13 00:38:00,0.0,1.9225,0.0010,388.42,0.30,194.0,34.1,138.05,30.85,24.66,36.51,1.02,-5.60,-26.48,-47,39,-940,23.8,17.4,-2.4,24.1,1.7,-29.8,5.73,2.54,-28.2,30.3
2012-09-13 00:39:00,0.0,1.9232,0.0010,388.37,0.25,200.4,25.9,138.05,30.86,24.65,36.52,1.07,-6.91,-26.48,-47,39,-940,23.8,17.7,-2.2,24.2,1.7,-29.7,5.73,2.55,-28.2,30.3
2012-09-13 00:40:00,0.0,1.9230,0.0009,388.26,0.27,190.9,29.6,138.05,30.86,24.65,36.52,0.97,-8.46,-26.47,-47,39,-940,23.8,17.5,-2.4,24.2,1.7,-29.7,5.73,2.56,-28.2,30.2
2012-09-13 00:41:00,0.0,1.9227,0.0010,388.31,0.29,200.8,32.4,138.05,30.86,24.65,36.53,0.96,-9.72,-26.47,-47,39,-940,23.8,17.2,-2.6,24.2,1.7,-29.8,5.73,2.55,-28.2,30.3
2012-09-13 00:42:00,0.0,1.9235,0.0010,388.33,0.34,195.2,28.6,138.05,30.87,24.65,36.52,1.04,-10.90,-26.46,-47,39,-940,23.8,17.9,-2.0,24.2,1.7,-29.8,5.73,2.54,-28.2,30.3
2012-09-13 00:43:00,0.0,1.9228,0.0008,388.38,0.29,201.2,29.8,138.05,30.87,24.65,36.52,1.04,-12.02,-26.46,-47,39,-940,23.8,17.8,-2.1,24.2,1.7,-29.8,5.73,2.53,-28.2,30.4
2012-09-13 00:44:00,0.0,1.9229,0.0009,388.28,0.29,189.5,28.9,138.05,30.87,24.65,36.52,0.95,-13.04,-26.46,-47,39,-940,23.8,17.6,-2.2,24.2,1.7,-29.7,5.73,2.55,-28.2,30.4
2012-09-13 00:45:00,0.0,1.9229,0.0008,388.35,0.31,190.5,35.7,138.05,30.88,24.66,36.52,0.99,-13.98,-26.45,-47,39,-940,23.8,17.7,-2.2,24.2,1.7,-29.8,5.73,2.55,-28.2,30.4
2012-09-13 00:46:00,0.0,1.9233,0.0010,388.42,0.31,196.3,31.9,138.05,30.88,24.66,36.52,1.05,-14.90,-26.46,-47,39,-940,23.8,18.0,-1.9,24.2,1.7,-29.7,5.73,2.56,-28.2,30.4
2012-09-13 00:47:00,0.0,1.9243,0.0007,388.27,0.31,189.1,30.2,138.05,30.88,24.65,36.52,1.04,-15.69,-26.46,-47,39,-940,23.8,17.9,-2.0,24.2,1.7,-29.7,5.73,2.55,-28.2,30.4
2012-09-13 00:48:00,0.0,1.9245,0.0009,388.28,0.33,193.7,29.0,138.05,30.88,24.65,36.52,0.95,-16.45,-26.47,-47,39,-940,23.8,18.2,-1.8,24.2,1.7,-29.7,5.73,2.53,-28.2,30.5
2012-09-13 00:49:00,0.0,1.9241,0.0009,388.27,0.30,194.5,29.8,138.05,30.89,24.65,36.53,0.96,-17.18,-26.47,-47,39,-940,23.8,17.6,-2.3,24.1,1.7,-29.7,5.73,2.53,-28.2,30.5
2012-09-13 00:50:00,0.0,1.9230,0.0010,388.40,0.37,193.5,29.5,138.05,30.89,24.65,36.52,1.02,-17.89,-26.48,-47,39,-940,23.7,17.1,-2.7,24.1,1.7,-29.8,5.73,2.54,-28.2,30.5
2012-09-13 00:51:00,0.0,1.9231,0.0008,388.28,0.35,196.0,30.5,138.05,30.89,24.65,36.53,1.06,-18.57,-26.48,-47,39,-940,23.7,17.1,-2.7,24.1,1.7,-29.8,5.73,2.56,-28.2,30.5
2012-09-13 00:52:00,0.0,1.9229,0.0009,388.30,0.32,183.9,34.5,138.05,30.90,24.66,36.52,0.97,-19.20,-26.49,-47,39,-940,23.7,17.0,-2.8,24.1,1.7,-29.7,5.73,2.56,-28.2,30.5
2012-09-13 00:53:00,0.0,1.9234,0.0008,388.35,0.28,186.3,30.1,138.05,30.90,24.65,36.52,0.96,-19.81,-26.50,-47,39,-940,23.7,17.1,-2.7,24.1,1.7,-29.7,5.73,2.55,-28.2,30.4
2012-09-13 00:54:00,0.0,1.9243,0.0010,388.34,0.37,186.9,35.4,138.05,30.91,24.66,36.52,1.00,-20.38,-26.50,-47,39,-940,23.7,17.6,-2.3,24.1,1.7,-29.7,5.73,2.53,-28.2,30.4
2012-09-13 00:55:00,0.0,1.9244,0.0007,388.30,0.29,192.3,29.0,138.05,30.91,24.65,36.52,1.05,-20.91,-26.51,-47,39,-940,23.8,17.5,-2.3,24.1,1.7,-29.7,5.73,2.53,-28.2,30.4
2012-09-13 00:56:00,0.0,1.9240,0.0008,388.30,0.28,197.7,26.0,138.05,30.91,24.65,36.52,1.01,-21.41,-26.52,-47,39,-940,23.8,17.5,-2.3,24.2,1.7,-29.7,5.73,2.54,-28.2,30.3
2012-09-13 00:57:00,0.0,1.9244,0.0009,388.29,0.32,196.8,29.3,138.05,30.92,24.65,36.53,0.95,-21.87,-26.53,-47,39,-940,23.8,17.4,-2.4,24.2,1.7,-29.7,5.73,2.55,-28.2,30.4
2012-09-13 00:58:00,0.0,1.9246,0.0009,388.32,0.23,191.9,35.4,138.05,30.92,24.65,36.53,0.98,-22.31,-26.54,-47,39,-940,23.8,17.5,-2.3,24.2,1.7,-29.7,5.73,2.55,-28.2,30.4
2012-09-13 00:59:00,0.0,1.9239,0.0008,388.37,0.32,193.2,31.7,138.05,30.92,24.66,36.52,1.03,-22.73,-26.54,-47,39,-940,23.8,17.3,-2.5,24.2,1.7,-29.8,5.73,2.54,-28.2,30.4
2012-09-13 01:00:00,0.0,1.9232,0.0012,388.42,0.37,196.2,30.5,138.04,30.93,24.65,36.52,1.03,-23.13,-26.55,-47,39,-940,23.8,17.0,-2.8,24.2,1.7,-30.0,5.73,2.53,-28.3,30.3
2012-09-13 01:01:00,0.0,1.9231,0.0009,388.41,0.27,189.2,31.4,138.04,30.93,24.65,36.52,0.95,-23.51,-26.56,-47,39,-940,23.8,17.0,-2.7,24.2,1.6,-30.2,5.73,2.54,-28.3,30.4
2012-09-13 01:02:00,0.0,1.9237,0.0010,388.39,0.29,186.7,30.9,138.04,30.93,24.65,36.52,0.96,-23.88,-26.56,-47,39,-940,23.8,17.0,-2.7,24.2,1.6,-30.2,5.73,2.54,-28.3,30.4
2012-09-13 01:03:00,0.0,1.9240,0.0008,388.34,0.31,185.5,33.0,138.05,30.94,24.66,36.53,1.01,-24.21,-26.57,-47,39,-940,23.8,17.2,-2.6,24.2,1.6,-30.2,5.73,2.55,-28.3,30.5
2012-09-13 01:04:00,0.0,1.9247,0.0009,388.37,0.27,188.0,28.1,138.04,30.94,24.66,36.52,1.03,-24.54,-26.58,-47,39,-940,23.8,17.8,-2.1,24.2,1.6,-30.3,5.73,2.55,-28.3,30.4
2012-09-13 01:05:00,0.0,1.9251,0.0009,388.40,0.31,191.6,27.5,138.04,30.94,24.65,36.52,1.01,-24.84,-26.58,-47,39,-940,23.8,17.6,-2.2,24.2,1.6,-30.4,5.73,2.54,-28.3,30.5
2012-09-13 01:06:00,0.0,1.9248,0.0008,388.37,0.30,189.5,27.8,138.04,30.94,24.65,36.52,0.94,-25.12,-26.59,-47,39,-941,23.9,17.4,-2.3,24.2,1.6,-30.4,5.73,2.54,-28.3,30.4
2012-09-13 01:07:00,0.0,1.9252,0.0009,388.44,0.29,188.5,28.6,138.04,30.95,24.65,36.52,0.97,-25.40,-26.60,-47,39,-941,23.9,17.5,-2.3,24.2,1.6,-30.4,5.73,2.53,-28.3,30.5
2012-09-13 01:08:00,0.0,1.9251,0.0008,388.43,0.30,187.2,30.7,138.04,30.95,24.65,36.51,1.00,-25.65,-26.60,-47,39,-941,23.8,17.3,-2.4,24.2,1.6,-30.5,5.73,2.54,-28.3,30.5
2012-09-13 01:09:00,0.0,1.9253,0.0010,388.44,0.26,187.2,29.0,138.04,30.96,24.65,36.52,1.06,-25.89,-26.61,-47,39,-941,23.8,17.2,-2.6,24.2,1.6,-30.4,5.73,2.56,-28.3,30.5
2012-09-13 01:10:00,0.0,1.9258,0.0008,388.38,0.25,191.1,22.0,138.04,30.96,24.66,36.52,0.99,-26.12,-26.61,-47,39,-941,23.9,17.7,-2.1,24.2,1.6,-30.4,5.73,2.55,-28.3,30.5
2012-09-13 01:11:00,0.0,1.9254,0.0010,388.53,0.30,183.6,32.3,138.04,30.97,24.65,36.52,0.96,-26.33,-26.62,-47,39,-941,23.8,17.7,-2.2,24.2,1.6,-30.4,5.73,2.54,-28.3,30.5
2012-09-13 01:12:00,0.0,1.9259,0.0010,388.45,0.31,185.3,31.2,138.04,30.97,24.65,36.52,0.99,-26.53,-26.62,-47,39,-941,23.9,17.4,-2.4,24.2,1.6,-30.4,5.73,2.53,-28.3,30.4
2012-09-13 01:13:00,0.0,1.9264,0.0011,388.45,0.29,178.0,29.8,138.04,30.97,24.65,36.52,0.98,-26.40,-26.62,-47,39,-941,23.9,17.5,-2.3,24.3,1.6,-30.4,5.73,2.53,-28.3,30.4
2012-09-13 01:14:00,0.0,1.9264,0.0008,388.45,0.34,181.8,32.5,138.04,30.98,24.65,36.53,1.04,-26.30,-26.63,-47,39,-941,23.9,17.7,-2.1,24.3,1.6,-30.4,5.73,2.55,-28.3,30.4
2012-09-13 01:15:00,0.0,1.9269,0.0009,388.47,0.30,178.5,29.8,138.04,30.98,24.65,36.52,0.96,-26.44,-26.64,-47,39,-941,23.9,17.6,-2.2,24.3,1.6,-30.4,5.73,2.56,-28.3,30.4
2012-09-13 01:16:00,0.0,1.9260,0.0010,388.41,0.31,177.5,30.7,138.04,30.99,24.66,36.52,0.91,-26.58,-26.65,-47,39,-941,23.9,17.3,-2.4,24.3,1.6,-30.4,5.73,2.55,-28.4,30.4
2012-09-13 01:17:00,0.0,1.9268,0.0009,388.49,0.25,184.4,36.0,138.04,30.99,24.66,36.52,0.97,-26.31,-26.65,-47,39,-941,23.9,17.0,-2.6,24.3,1.6,-30.4,5.73,2.54,-28.4,30.5
2012-09-13 01:18:00,0.0,1.9272,0.0009,388.41,0.29,178.4,33.4,138.04,30.99,24.65,36.52,1.00,-26.36,-26.65,-47,39,-941,23.9,17.0,-2.6,24.3,1.6,-30.4,5.73,2.53,-28.4,30.5
2012-09-13 01:19:00,0.0,1.9274,0.0009,388.45,0.31,186.0,28.9,138.04,30.99,24.65,36.52,1.05,-26.52,-26.66,-47,39,-941,23.9,17.5,-2.2,24.3,1.6,-30.4,5.73,2.53,-28.4,30.5
2012-09-13 01:20:00,0.0,1.9268,0.0009,388.39,0.28,176.0,30.1,138.04,31.00,24.65,36.53,0.92,-26.52,-26.67,-47,39,-941,23.9,17.6,-2.1,24.3,1.6,-30.4,5.73,2.54,-28.4,30.5
2012-09-13 01:21:00,0.0,1.9269,0.0007,388.45,0.28,178.5,31.9,138.04,31.00,24.65,36.52,1.04,-26.32,-26.67,-47,39,-941,23.9,17.6,-2.2,24.3,1.6,-30.4,5.73,2.55,-28.4,30.5
2012-09-13 01:22:00,0.0,1.9271,0.0011,388.49,0.31,175.3,34.6,138.04,31.01,24.66,36.52,0.95,-26.44,-26.67,-47,39,-941,23.9,17.7,-2.0,24.3,1.6,-30.3,5.73,2.56,-28.4,30.5
2012-09-13 01:23:00,0.0,1.9289,0.0008,388.42,0.27,176.3,30.1,138.04,31.01,24.65,36.52,0.94,-26.61,-26.68,-47,39,-941,23.9,17.5,-2.2,24.3,1.6,-30.4,5.73,2.54,-28.4,30.5
2012-09-13 01:24:00,0.0,1.9282,0.0010,388.43,0.31,179.7,33.1,138.04,31.01,24.65,36.52,1.00,-26.42,-26.66,-47,39,-941,23.9,17.6,-2.1,24.3,1.6,-30.5,5.73,2.53,-28.4,30.5
2012-09-13 01:25:00,0.0,1.9286,0.0009,388.35,0.31,180.2,33.6,138.04,31.01,24.65,36.52,0.97,-26.38,-25.76,-47,39,-941,23.9,17.3,-2.4,24.3,1.6,-30.4,5.73,2.53,-28.4,30.5
2012-09-13 01:26:00,0.0,1.9284,0.0010,388.50,0.27,191.5,31.2,138.04,31.02,24.65,36.52,0.91,-26.50,-23.93,-47,39,-941,23.9,17.8,-2.0,24.3,1.6,-30.4,5.73,2.54,-28.2,30.5
2012-09-13 01:27:00,0.0,1.9281,0.0007,388.43,0.30,221.3,31.5,138.04,31.02,24.65,36.52,0.79,-26.58,-21.96,-47,39,-940,23.9,17.5,-2.3,24.3,1.6,-30.2,5.73,2.55,-27.8,30.5
2012-09-13 01:28:00,0.0,1.9275,0.0009,388.48,0.28,242.0,29.5,138.04,31.02,24.65,36.52,0.82,-26.62,-20.02,-47,39,-940,23.9,17.0,-2.6,24.3,1.7,-29.7,5.73,2.56,-27.4,30.5
2012-09-13 01:29:00,0.0,1.9278,0.0009,388.37,0.29,253.6,27.4,138.04,31.03,24.65,36.53,0.88,-26.64,-18.17,-47,39,-940,23.9,17.0,-2.6,24.3,1.8,-29.1,5.73,2.54,-27.2,30.6
2012-09-13 01:30:00,0.0,1.9277,0.0008,388.34,0.25,268.7,32.7,138.04,31.03,24.65,36.52,0.92,-26.64,-16.41,-47,39,-940,23.9,17.4,-2.3,24.3,1.9,-28.7,5.73,2.54,-27.0,30.5
2012-09-13 01:31:00,0.0,1.9281,0.0009,388.34,0.30,273.7,30.5,138.04,31.04,24.66,36.52,0.93,-26.64,-14.74,-47,39,-940,23.9,17.3,-2.4,24.3,1.9,-28.5,5.73,2.53,-27.0,30.4
2012-09-13 01:32:00,0.0,1.9282,0.0008,388.38,0.33,269.3,29.8,138.04,31.04,24.65,36.52,0.86,-26.62,-13.16,-47,39,-940,23.9,17.0,-2.6,24.3,1.9,-28.4,5.73,2.53,-26.9,30.4
2012-09-13 01:33:00,0.0,1.9273,0.0008,388.41,0.27,279.3,34.1,138.04,31.04,24.65,36.52,0.83,-26.61,-11.66,-47,39,-940,23.9,16.9,-2.7,24.3,1.9,-28.4,5.73,2.55,-26.8,30.4
2012-09-13 01:34:00,0.0,1.9272,0.0009,388.33,0.30,277.8,25.1,138.04,31.04,24.65,36.52,0.86,-26.59,-10.24,-47,39,-940,23.9,16.7,-2.8,24.3,1.9,-28.3,5.73,2.56,-26.8,30.4
2012-09-13 01:35:00,0.0,1.9280,0.0010,388.34,0.30,281.2,35.2,138.04,31.04,24.65,36.52,0.90,-26.58,-8.89,-47,39,-940,23.9,16.6,-2.9,24.3,1.9,-28.4,5.73,2.56,-26.8,30.4
2012-09-13 01:36:00,0.0,1.9292,0.0011,388.34,0.30,276.1,28.1,138.04,31.05,24.66,36.52,0.92,-26.56,-7.62,-47,39,-940,23.9,17.4,-2.3,24.3,1.9,-28.4,5.73,2.54,-26.9,30.5
2012-09-13 01:37:00,0.0,1.9295,0.0009,388.31,0.27,271.1,29.5,138.04,31.05,24.65,36.52,0.94,-26.54,-6.40,-47,39,-940,23.9,17.5,-2.2,24.3,1.9,-28.5,5.73,2.53,-26.9,30.4
2012-09-13 01:38:00,0.0,1.9280,0.0009,388.32,0.32,276.4,26.4,138.05,31.05,24.66,36.51,0.92,-26.53,-5.25,-47,39,-941,24.0,16.9,-2.6,24.4,1.9,-28.6,5.73,2.54,-26.9,30.5
2012-09-13 01:39:00,0.0,1.9272,0.0008,388.28,0.32,270.1,32.6,138.05,31.05,24.65,36.52,0.87,-26.50,-4.15,-47,39,-941,24.0,16.7,-2.8,24.3,1.9,-28.7,5.73,2.55,-26.9,30.5
2012-09-13 01:40:00,0.0,1.9275,0.0007,388.31,0.36,274.1,26.8,138.04,31.06,24.65,36.52,0.84,-26.49,-3.11,-47,39,-941,23.9,16.7,-2.9,24.3,1.9,-28.7,5.73,2.56,-27.0,30.5
2012-09-13 01:41:00,0.0,1.9288,0.0010,388.25,0.29,272.3,31.4,138.05,31.06,24.65,36.52,0.87,-26.48,-2.13,-47,39,-941,23.9,16.7,-2.8,24.3,1.9,-28.7,5.73,2.55,-27.0,30.5
2012-09-13 01:42:00,0.0,1.9286,0.0010,388.34,0.26,263.3,34.0,138.05,31.06,24.65,36.52,0.89,-26.45,-1.18,-47,39,-941,24.0,17.0,-2.6,24.3,1.8,-28.9,5.73,2.54,-27.0,30.5
2012-09-13 01:43:00,0.0,1.9288,0.0011,388.33,0.29,266.2,28.3,138.05,31.06,24.65,36.52,0.92,-26.43,-0.29,-47,39,-940,24.0,16.6,-2.9,24.3,1.9,-28.8,5.73,2.53,-27.0,30.5
2012-09-13 01:44:00,0.0,1.9285,0.0010,388.36,0.28,265.6,26.6,138.05,31.06,24.65,36.52,0.93,-26.42,0.56,-47,39,-940,24.0,17.0,-2.6,24.3,1.9,-28.8,5.73,2.54,-27.1,30.5
2012-09-13 01:45:00,0.0,1.9291,0.0009,388.29,0.32,259.1,30.3,138.05,31.07,24.65,36.51,0.94,-26.40,1.36,-47,39,-940,23.9,17.0,-2.6,24.3,1.9,-28.8,5.73,2.56,-27.1,30.5
2012-09-13 01:46:00,0.0,1.9298,0.0009,388.22,0.27,256.5,29.0,138.05,31.07,24.65,36.52,0.93,-26.39,2.11,-47,39,-940,23.9,17.4,-2.3,24.3,1.8,-28.9,5.73,2.56,-27.1,30.5
2012-09-13 01:47:00,0.0,1.9295,0.0010,388.39,0.31,265.4,28.8,138.05,31.07,24.65,36.51,0.89,-26.38,2.76,-47,39,-940,24.0,17.4,-2.3,24.3,1.8,-29.0,5.73,2.55,-27.1,30.5
2012-09-13 01:48:00,0.0,1.9285,0.0009,388.25,0.28,260.7,25.6,138.05,31.07,24.65,36.52,0.85,-26.36,3.14,-47,39,-940,24.0,17.1,-2.6,24.3,1.8,-29.0,5.73,2.53,-27.1,30.5
2012-09-13 01:49:00,0.0,1.9283,0.0007,388.29,0.31,262.7,33.6,138.05,31.07,24.65,36.52,0.87,-26.34,3.30,-47,39,-940,24.0,17.4,-2.2,24.3,1.8,-29.0,5.73,2.54,-27.2,30.5
2012-09-13 01:50:00,0.0,1.9282,0.0008,388.30,0.29,254.5,36.1,138.05,31.07,24.66,36.52,0.89,-26.33,3.55,-47,39,-941,24.0,17.7,-2.0,24.3,1.8,-28.9,5.73,2.55,-27.2,30.6
2012-09-13 01:51:00,0.0,1.9286,0.0009,388.27,0.25,249.2,25.4,138.05,31.07,24.65,36.52,0.91,-26.32,4.00,-47,39,-941,24.0,17.4,-2.3,24.3,1.8,-29.0,5.73,2.56,-27.2,30.5
2012-09-13 01:52:00,0.0,1.9279,0.0009,388.21,0.29,251.2,30.8,138.05,31.08,24.65,36.52,0.92,-26.30,4.59,-47,39,-941,24.0,16.9,-2.6,24.3,1.8,-29.0,5.73,2.56,-27.2,30.5
2012-09-13 01:53:00,0.0,1.9275,0.0009,388.33,0.25,251.6,24.5,138.05,31.08,24.65,36.52,0.93,-26.29,5.19,-47,39,-941,24.0,16.6,-2.9,24.3,1.8,-29.1,5.73,2.54,-27.2,30.5
2012-09-13 01:54:00,0.0,1.9276,0.0010,388.19,0.24,250.5,26.7,138.05,31.08,24.66,36.52,0.94,-26.28,5.75,-47,39,-941,24.0,16.6,-2.9,24.3,1.8,-29.1,5.73,2.54,-27.2,30.5
2012-09-13 01:55:00,0.0,1.9279,0.0009,388.39,0.32,250.9,31.1,138.05,31.08,24.65,36.51,0.94,-26.27,6.28,-47,39,-940,24.0,17.2,-2.4,24.3,1.8,-29.1,5.73,2.55,-27.2,30.5
2012-09-13 01:56:00,0.0,1.9280,0.0007,388.20,0.34,259.1,28.8,138.05,31.08,24.66,36.52,0.92,-26.25,6.78,-47,39,-940,24.0,16.9,-2.7,24.3,1.8,-29.1,5.73,2.56,-27.2,30.5
2012-09-13 01:57:00,0.0,1.9281,0.0008,388.18,0.30,252.7,27.9,138.05,31.08,24.66,36.52,0.88,-26.24,7.26,-47,39,-940,24.0,16.7,-2.8,24.4,1.8,-29.1,5.73,2.57,-27.2,30.4
2012-09-13 01:58:00,0.0,1.9282,0.0010,388.29,0.26,243.9,29.0,138.05,31.08,24.65,36.52,0.88,-26.23,7.70,-47,39,-940,24.0,16.8,-2.7,24.4,1.8,-29.1,5.73,2.55,-27.2,30.4
2012-09-13 01:59:00,0.0,1.9294,0.0009,388.12,0.27,249.5,30.0,138.05,31.08,24.65,36.52,0.88,-26.22,8.13,-47,39,-940,24.0,17.1,-2.4,24.4,1.8,-29.1,5.73,2.54,-27.2,30.4
2012-09-13 02:00:00,0.0,1.9292,0.0009,388.29,0.34,255.3,28.0,138.05,31.08,24.66,36.51,0.90,-26.20,8.55,-47,39,-941,24.0,17.3,-2.3,24.4,1.8,-29.1,5.73,2.54,-27.2,30.4
2012-09-13 02:01:00,0.0,1.9288,0.0008,388.30,0.26,260.6,26.4,138.05,31.08,24.66,36.51,0.90,-26.20,8.94,-47,39,-941,24.0,17.5,-2.2,24.4,1.8,-29.1,5.73,2.55,-27.2,30.4
2012-09-13 02:02:00,0.0,1.9285,0.0009,388.27,0.32,249.2,33.6,138.05,31.08,24.65,36.51,0.92,-26.18,9.34,-47,39,-940,24.0,17.7,-2.0,24.4,1.8,-29.1,5.73,2.56,-27.2,30.4
2012-09-13 02:03:00,0.0,1.9287,0.0009,388.15,0.31,249.8,27.0,138.05,31.08,24.65,36.52,0.92,-26.17,9.71,-47,39,-940,24.0,17.3,-2.3,24.4,1.8,-29.1,5.73,2.56,-27.2,30.4
2012-09-13 02:04:00,0.0,1.9280,0.0009,388.16,0.30,250.9,30.6,138.05,31.08,24.65,36.52,0.93,-26.16,10.08,-47,39,-940,24.0,17.0,-2.5,24.4,1.8,-29.1,5.73,2.54,-27.2,30.5
2012-09-13 02:05:00,0.0,1.9278,0.0010,388.12,0.30,257.6,33.2,138.05,31.08,24.65,36.52,0.93,-26.16,10.44,-47,39,-941,24.0,16.7,-2.7,24.4,1.8,-29.1,5.73,2.54,-27.2,30.4
2012-09-13 02:06:00,0.0,1.9269,0.0008,388.20,0.26,246.7,29.4,138.05,31.09,24.66,36.52,0.94,-26.15,10.78,-47,39,-941,24.1,16.8,-2.7,24.4,1.8,-29.1,5.73,2.55,-27.2,30.5
2012-09-13 02:07:00,0.0,1.9272,0.0010,388.21,0.34,247.0,33.7,138.05,31.09,24.65,36.52,0.94,-26.14,11.11,-47,39,-941,24.0,17.0,-2.5,24.4,1.8,-29.1,5.73,2.56,-27.2,30.5
2012-09-13 02:08:00,0.0,1.9271,0.0008,388.17,0.30,253.7,32.8,138.05,31.08,24.65,36.52,0.93,-26.14,11.44,-47,39,-941,24.0,16.6,-2.9,24.4,1.8,-29.1,5.73,2.56,-27.2,30.5
2012-09-13 02:09:00,0.0,1.9262,0.0007,388.13,0.33,244.0,28.2,138.05,31.09,24.66,36.52,0.90,-26.13,11.75,-47,39,-941,24.0,16.5,-2.9,24.4,1.8,-29.1,5.73,2.55,-27.2,30.5
2012-09-13 02:10:00,0.0,1.9268,0.0008,388.16,0.22,249.9,31.3,138.05,31.09,24.65,36.52,0.90,-26.12,12.05,-47,39,-940,24.0,16.5,-3.0,24.4,1.8,-29.1,5.73,2.54,-27.2,30.5
2012-09-13 02:11:00,0.0,1.9265,0.0010,388.19,0.30,248.4,26.9,138.05,31.09,24.66,36.52,0.90,-26.12,12.34,-47,39,-940,24.0,16.8,-2.7,24.4,1.8,-29.1,5.73,2.54,-27.2,30.5
2012-09-13 02:12:00,0.0,1.9266,0.0011,388.11,0.33,250.0,27.0,138.05,31.09,24.65,36.52,0.89,-26.11,12.61,-47,39,-940,24.0,17.0,-2.6,24.4,1.8,-29.1,5.73,2.56,-27.3,30.5
2012-09-13 02:13:00,0.0,1.9271,0.0009,388.06,0.30,250.6,34.2,138.05,31.09,24.65,36.52,0.90,-26.10,12.88,-47,39,-940,24.0,16.8,-2.7,24.4,1.8,-29.1,5.73,2.56,-27.2,30.5
2012-09-13 02:14:00,0.0,1.9270,0.0007,388.23,0.32,245.7,25.3,138.05,31.09,24.65,36.51,0.92,-26.10,13.13,-47,39,-941,24.0,16.6,-2.9,24.4,1.8,-29.1,5.73,2.56,-27.3,30.5
2012-09-13 02:15:00,0.0,1.9263,0.0008,388.06,0.26,259.0,31.4,138.05,31.09,24.65,36.53,0.93,-26.09,13.38,-47,39,-941,24.0,16.4,-3.0,24.4,1.8,-29.1,5.73,2.54,-27.2,30.5
2012-09-13 02:16:00,0.0,1.9258,0.0008,388.07,0.30,244.6,25.4,138.05,31.09,24.66,36.52,0.92,-26.09,13.62,-47,39,-941,24.0,16.1,-3.3,24.4,1.8,-29.1,5.73,2.53,-27.3,30.4
2012-09-13 02:17:00,0.0,1.9265,0.0009,388.15,0.33,253.8,33.9,138.05,31.09,24.65,36.52,0.92,-26.08,13.85,-47,39,-941,24.0,16.4,-3.0,24.4,1.8,-29.1,5.73,2.55,-27.3,30.4
2012-09-13 02:18:00,0.0,1.9274,0.0011,388.10,0.31,253.3,32.4,138.05,31.09,24.66,36.52,0.93,-26.08,14.07,-47,39,-941,24.0,17.2,-2.4,24.4,1.8,-29.1,5.73,2.56,-27.3,30.5
2012-09-13 02:19:00,0.0,1.9277,0.0010,388.15,0.25,256.0,31.6,138.05,31.09,24.65,36.52,0.94,-26.07,14.28,-47,39,-940,24.0,17.4,-2.2,24.4,1.8,-29.1,5.73,2.56,-27.3,30.5
2012-09-13 02:20:00,0.0,1.9273,0.0008,388.21,0.25,247.6,28.3,138.05,31.09,24.66,36.51,0.93,-26.07,14.48,-47,39,-940,24.0,17.2,-2.4,24.4,1.8,-29.0,5.73,2.55,-27.3,30.6